Year,Month,Day,Hour,Minute,Value (Times are PST for temperature in C)
2022,04,26,00,00,6.30
2022,04,26,00,01,6.30
2022,04,26,00,02,6.30
2022,04,26,00,03,6.30
2022,04,26,00,04,6.30
2022,04,26,00,05,6.30
2022,04,26,00,06,6.20
2022,04,26,00,07,6.20
2022,04,26,00,08,6.20
2022,04,26,00,09,6.20
2022,04,26,00,10,6.20
2022,04,26,00,11,6.20
2022,04,26,00,12,6.20
2022,04,26,00,13,6.20
2022,04,26,00,14,6.10
2022,04,26,00,15,6.10
2022,04,26,00,16,6.10
2022,04,26,00,17,6.10
2022,04,26,00,18,6.10
2022,04,26,00,19,6.10
2022,04,26,00,20,6.00
2022,04,26,00,21,6.00
2022,04,26,00,22,5.90
2022,04,26,00,23,5.90
2022,04,26,00,24,5.80
2022,04,26,00,25,5.80
2022,04,26,00,26,5.70
2022,04,26,00,27,5.70
2022,04,26,00,28,5.70
2022,04,26,00,29,5.60
2022,04,26,00,30,5.60
2022,04,26,00,31,5.60
2022,04,26,00,32,5.60
2022,04,26,00,33,5.50
2022,04,26,00,34,5.50
2022,04,26,00,35,5.50
2022,04,26,00,36,5.50
2022,04,26,00,37,5.40
2022,04,26,00,38,5.40
2022,04,26,00,39,5.40
2022,04,26,00,40,5.40
2022,04,26,00,41,5.40
2022,04,26,00,42,5.40
2022,04,26,00,43,5.40
2022,04,26,00,44,5.40
2022,04,26,00,45,5.40
2022,04,26,00,46,5.40
2022,04,26,00,47,5.40
2022,04,26,00,48,5.30
2022,04,26,00,49,5.30
2022,04,26,00,50,5.30
2022,04,26,00,51,5.30
2022,04,26,00,52,5.30
2022,04,26,00,53,5.20
2022,04,26,00,54,5.20
2022,04,26,00,55,5.20
2022,04,26,00,56,5.10
2022,04,26,00,57,5.10
2022,04,26,00,58,5.10
2022,04,26,00,59,5.10
2022,04,26,01,00,5.10
2022,04,26,01,01,5.10
2022,04,26,01,02,5.10
2022,04,26,01,03,5.10
2022,04,26,01,04,5.10
2022,04,26,01,05,5.10
2022,04,26,01,06,5.10
2022,04,26,01,07,5.10
2022,04,26,01,08,5.10
2022,04,26,01,09,5.20
2022,04,26,01,10,5.20
2022,04,26,01,11,5.20
2022,04,26,01,12,5.20
2022,04,26,01,13,5.30
2022,04,26,01,14,5.30
2022,04,26,01,15,5.30
2022,04,26,01,16,5.20
2022,04,26,01,17,5.30
2022,04,26,01,18,5.30
2022,04,26,01,19,5.30
2022,04,26,01,20,5.30
2022,04,26,01,21,5.30
2022,04,26,01,22,5.30
2022,04,26,01,23,5.20
2022,04,26,01,24,5.20
2022,04,26,01,25,5.20
2022,04,26,01,26,5.20
2022,04,26,01,27,5.20
2022,04,26,01,28,5.20
2022,04,26,01,29,5.20
2022,04,26,01,30,5.10
2022,04,26,01,31,5.10
2022,04,26,01,32,5.10
2022,04,26,01,33,5.10
2022,04,26,01,34,5.10
2022,04,26,01,35,5.10
2022,04,26,01,36,5.10
2022,04,26,01,37,5.10
2022,04,26,01,38,5.00
2022,04,26,01,39,5.00
2022,04,26,01,40,5.00
2022,04,26,01,41,5.00
2022,04,26,01,42,5.00
2022,04,26,01,43,5.00
2022,04,26,01,44,4.90
2022,04,26,01,45,4.90
2022,04,26,01,46,4.90
2022,04,26,01,47,4.90
2022,04,26,01,48,4.90
2022,04,26,01,49,4.90
2022,04,26,01,50,4.90
2022,04,26,01,51,4.90
2022,04,26,01,52,4.90
2022,04,26,01,53,4.90
2022,04,26,01,54,4.90
2022,04,26,01,55,4.90
2022,04,26,01,56,4.90
2022,04,26,01,57,4.90
2022,04,26,01,58,4.90
2022,04,26,01,59,4.90
2022,04,26,02,00,4.90
2022,04,26,02,01,4.80
2022,04,26,02,02,4.80
2022,04,26,02,03,4.80
2022,04,26,02,04,4.80
2022,04,26,02,05,4.80
2022,04,26,02,06,4.80
2022,04,26,02,07,4.70
2022,04,26,02,08,4.70
2022,04,26,02,09,4.70
2022,04,26,02,10,4.70
2022,04,26,02,11,4.70
2022,04,26,02,12,4.60
2022,04,26,02,13,4.60
2022,04,26,02,14,4.60
2022,04,26,02,15,4.60
2022,04,26,02,16,4.60
2022,04,26,02,17,4.60
2022,04,26,02,18,4.60
2022,04,26,02,19,4.60
2022,04,26,02,20,4.60
2022,04,26,02,21,4.60
2022,04,26,02,22,4.50
2022,04,26,02,23,4.50
2022,04,26,02,24,4.50
2022,04,26,02,25,4.40
2022,04,26,02,26,4.40
2022,04,26,02,27,4.40
2022,04,26,02,28,4.40
2022,04,26,02,29,4.30
2022,04,26,02,30,4.30
2022,04,26,02,31,4.30
2022,04,26,02,32,4.30
2022,04,26,02,33,4.30
2022,04,26,02,34,4.30
2022,04,26,02,35,4.30
2022,04,26,02,36,4.20
2022,04,26,02,37,4.20
2022,04,26,02,38,4.20
2022,04,26,02,39,4.20
2022,04,26,02,40,4.20
2022,04,26,02,41,4.20
2022,04,26,02,42,4.20
2022,04,26,02,43,4.20
2022,04,26,02,44,4.20
2022,04,26,02,45,4.10
2022,04,26,02,46,4.10
2022,04,26,02,47,4.10
2022,04,26,02,48,4.00
2022,04,26,02,49,4.00
2022,04,26,02,50,4.00
2022,04,26,02,51,4.00
2022,04,26,02,52,3.90
2022,04,26,02,53,3.90
2022,04,26,02,54,4.00
2022,04,26,02,55,4.00
2022,04,26,02,56,4.00
2022,04,26,02,57,4.00
2022,04,26,02,58,4.00
2022,04,26,02,59,4.00
2022,04,26,03,00,4.00
2022,04,26,03,01,4.10
2022,04,26,03,02,4.00
2022,04,26,03,03,4.00
2022,04,26,03,04,4.00
2022,04,26,03,05,4.10
2022,04,26,03,06,4.10
2022,04,26,03,07,4.10
2022,04,26,03,08,4.10
2022,04,26,03,09,4.10
2022,04,26,03,10,4.10
2022,04,26,03,11,4.10
2022,04,26,03,12,4.20
2022,04,26,03,13,4.20
2022,04,26,03,14,4.20
2022,04,26,03,15,4.20
2022,04,26,03,16,4.30
2022,04,26,03,17,4.30
2022,04,26,03,18,4.30
2022,04,26,03,19,4.30
2022,04,26,03,20,4.30
2022,04,26,03,21,4.30
2022,04,26,03,22,4.30
2022,04,26,03,23,4.30
2022,04,26,03,24,4.30
2022,04,26,03,25,4.30
2022,04,26,03,26,4.30
2022,04,26,03,27,4.30
2022,04,26,03,28,4.40
2022,04,26,03,29,4.40
2022,04,26,03,30,4.50
2022,04,26,03,31,4.60
2022,04,26,03,32,4.60
2022,04,26,03,33,4.60
2022,04,26,03,34,4.70
2022,04,26,03,35,4.70
2022,04,26,03,36,4.70
2022,04,26,03,37,4.70
2022,04,26,03,38,4.70
2022,04,26,03,39,4.70
2022,04,26,03,40,4.70
2022,04,26,03,41,4.70
2022,04,26,03,42,4.80
2022,04,26,03,43,4.90
2022,04,26,03,44,5.00
2022,04,26,03,45,5.00
2022,04,26,03,46,5.10
2022,04,26,03,47,5.10
2022,04,26,03,48,5.10
2022,04,26,03,49,5.10
2022,04,26,03,50,5.20
2022,04,26,03,51,5.20
2022,04,26,03,52,5.20
2022,04,26,03,53,5.20
2022,04,26,03,54,5.20
2022,04,26,03,55,5.20
2022,04,26,03,56,5.20
2022,04,26,03,57,5.20
2022,04,26,03,58,5.20
2022,04,26,03,59,5.20
2022,04,26,04,00,5.20
2022,04,26,04,01,5.20
2022,04,26,04,02,5.20
2022,04,26,04,03,5.10
2022,04,26,04,04,5.00
2022,04,26,04,05,5.00
2022,04,26,04,06,5.00
2022,04,26,04,07,5.00
2022,04,26,04,08,5.10
2022,04,26,04,09,5.10
2022,04,26,04,10,5.20
2022,04,26,04,11,5.20
2022,04,26,04,12,5.20
2022,04,26,04,13,5.30
2022,04,26,04,14,5.30
2022,04,26,04,15,5.40
2022,04,26,04,16,5.40
2022,04,26,04,17,5.40
2022,04,26,04,18,5.40
2022,04,26,04,19,5.40
2022,04,26,04,20,5.40
2022,04,26,04,21,5.40
2022,04,26,04,22,5.40
2022,04,26,04,23,5.40
2022,04,26,04,24,5.50
2022,04,26,04,25,5.50
2022,04,26,04,26,5.50
2022,04,26,04,27,5.50
2022,04,26,04,28,5.50
2022,04,26,04,29,5.50
2022,04,26,04,30,5.40
2022,04,26,04,31,5.40
2022,04,26,04,32,5.40
2022,04,26,04,33,5.40
2022,04,26,04,34,5.40
2022,04,26,04,35,5.50
2022,04,26,04,36,5.50
2022,04,26,04,37,5.50
2022,04,26,04,38,5.40
2022,04,26,04,39,5.40
2022,04,26,04,40,5.30
2022,04,26,04,41,5.30
2022,04,26,04,42,5.20
2022,04,26,04,43,5.20
2022,04,26,04,44,5.10
2022,04,26,04,45,5.10
2022,04,26,04,46,5.10
2022,04,26,04,47,5.10
2022,04,26,04,48,5.10
2022,04,26,04,49,5.10
2022,04,26,04,50,5.10
2022,04,26,04,51,5.00
2022,04,26,04,52,5.00
2022,04,26,04,53,5.00
2022,04,26,04,54,5.00
2022,04,26,04,55,4.90
2022,04,26,04,56,4.90
2022,04,26,04,57,4.90
2022,04,26,04,58,4.90
2022,04,26,04,59,5.00
2022,04,26,05,00,5.00
2022,04,26,05,01,5.00
2022,04,26,05,02,5.00
2022,04,26,05,03,5.00
2022,04,26,05,04,4.90
2022,04,26,05,05,4.90
2022,04,26,05,06,4.80
2022,04,26,05,07,4.80
2022,04,26,05,08,4.80
2022,04,26,05,09,4.80
2022,04,26,05,10,4.70
2022,04,26,05,11,4.70
2022,04,26,05,12,4.70
2022,04,26,05,13,4.80
2022,04,26,05,14,4.80
2022,04,26,05,15,4.80
2022,04,26,05,16,4.80
2022,04,26,05,17,4.80
2022,04,26,05,18,4.90
2022,04,26,05,19,4.90
2022,04,26,05,20,4.90
2022,04,26,05,21,4.90
2022,04,26,05,22,4.90
2022,04,26,05,23,5.00
2022,04,26,05,24,5.00
2022,04,26,05,25,5.00
2022,04,26,05,26,5.10
2022,04,26,05,27,5.10
2022,04,26,05,28,5.10
2022,04,26,05,29,5.10
2022,04,26,05,30,5.20
2022,04,26,05,31,5.20
2022,04,26,05,32,5.20
2022,04,26,05,33,5.20
2022,04,26,05,34,5.20
2022,04,26,05,35,5.20
2022,04,26,05,36,5.20
2022,04,26,05,37,5.20
2022,04,26,05,38,5.20
2022,04,26,05,39,5.30
2022,04,26,05,40,5.30
2022,04,26,05,41,5.30
2022,04,26,05,42,5.40
2022,04,26,05,43,5.40
2022,04,26,05,44,5.40
2022,04,26,05,45,5.40
2022,04,26,05,46,5.40
2022,04,26,05,47,5.40
2022,04,26,05,48,5.40
2022,04,26,05,49,5.40
2022,04,26,05,50,5.40
2022,04,26,05,51,5.40
2022,04,26,05,52,5.40
2022,04,26,05,53,5.40
2022,04,26,05,54,5.40
2022,04,26,05,55,5.40
2022,04,26,05,56,5.40
2022,04,26,05,57,5.40
2022,04,26,05,58,5.40
2022,04,26,05,59,5.40
2022,04,26,06,00,5.50
2022,04,26,06,01,5.50
2022,04,26,06,02,5.50
2022,04,26,06,03,5.50
2022,04,26,06,04,5.50
2022,04,26,06,05,5.60
2022,04,26,06,06,5.60
2022,04,26,06,07,5.60
2022,04,26,06,08,5.70
2022,04,26,06,09,5.70
2022,04,26,06,10,5.80
2022,04,26,06,11,5.80
2022,04,26,06,12,5.90
2022,04,26,06,13,5.90
2022,04,26,06,14,6.00
2022,04,26,06,15,6.00
2022,04,26,06,16,6.10
2022,04,26,06,17,6.20
2022,04,26,06,18,6.20
2022,04,26,06,19,6.30
2022,04,26,06,20,6.30
2022,04,26,06,21,6.30
2022,04,26,06,22,6.30
2022,04,26,06,23,6.30
2022,04,26,06,24,6.30
2022,04,26,06,25,6.40
2022,04,26,06,26,6.40
2022,04,26,06,27,6.40
2022,04,26,06,28,6.30
2022,04,26,06,29,6.30
2022,04,26,06,30,6.30
2022,04,26,06,31,6.20
2022,04,26,06,32,6.20
2022,04,26,06,33,6.10
2022,04,26,06,34,6.10
2022,04,26,06,35,6.10
2022,04,26,06,36,6.10
2022,04,26,06,37,6.10
2022,04,26,06,38,6.10
2022,04,26,06,39,6.10
2022,04,26,06,40,6.10
2022,04,26,06,41,6.10
2022,04,26,06,42,6.10
2022,04,26,06,43,6.10
2022,04,26,06,44,6.10
2022,04,26,06,45,6.20
2022,04,26,06,46,6.20
2022,04,26,06,47,6.20
2022,04,26,06,48,6.20
2022,04,26,06,49,6.30
2022,04,26,06,50,6.30
2022,04,26,06,51,6.30
2022,04,26,06,52,6.30
2022,04,26,06,53,6.30
2022,04,26,06,54,6.30
2022,04,26,06,55,6.30
2022,04,26,06,56,6.30
2022,04,26,06,57,6.30
2022,04,26,06,58,6.30
2022,04,26,06,59,6.30
2022,04,26,07,00,6.40
2022,04,26,07,01,6.40
2022,04,26,07,02,6.40
2022,04,26,07,03,6.40
2022,04,26,07,04,6.40
2022,04,26,07,05,6.40
2022,04,26,07,06,6.50
2022,04,26,07,07,6.50
2022,04,26,07,08,6.50
2022,04,26,07,09,6.50
2022,04,26,07,10,6.50
2022,04,26,07,11,6.50
2022,04,26,07,12,6.50
2022,04,26,07,13,6.60
2022,04,26,07,14,6.60
2022,04,26,07,15,6.60
2022,04,26,07,16,6.60
2022,04,26,07,17,6.70
2022,04,26,07,18,6.70
2022,04,26,07,19,6.70
2022,04,26,07,20,6.70
2022,04,26,07,21,6.70
2022,04,26,07,22,6.80
2022,04,26,07,23,6.80
2022,04,26,07,24,6.80
2022,04,26,07,25,6.80
2022,04,26,07,26,6.80
2022,04,26,07,27,6.80
2022,04,26,07,28,6.90
2022,04,26,07,29,6.90
2022,04,26,07,30,6.90
2022,04,26,07,31,6.90
2022,04,26,07,32,7.00
2022,04,26,07,33,7.00
2022,04,26,07,34,7.10
2022,04,26,07,35,7.10
2022,04,26,07,36,7.10
2022,04,26,07,37,7.20
2022,04,26,07,38,7.20
2022,04,26,07,39,7.30
2022,04,26,07,40,7.30
2022,04,26,07,41,7.30
2022,04,26,07,42,7.40
2022,04,26,07,43,7.40
2022,04,26,07,44,7.40
2022,04,26,07,45,7.50
2022,04,26,07,46,7.50
2022,04,26,07,47,7.60
2022,04,26,07,48,7.60
2022,04,26,07,49,7.70
2022,04,26,07,50,7.70
2022,04,26,07,51,7.80
2022,04,26,07,52,7.80
2022,04,26,07,53,7.80
2022,04,26,07,54,7.80
2022,04,26,07,55,7.80
2022,04,26,07,56,7.90
2022,04,26,07,57,7.90
2022,04,26,07,58,7.90
2022,04,26,07,59,7.90
2022,04,26,08,00,7.90
2022,04,26,08,01,7.90
2022,04,26,08,02,7.90
2022,04,26,08,03,7.90
2022,04,26,08,04,7.90
2022,04,26,08,05,7.90
2022,04,26,08,06,7.90
2022,04,26,08,07,7.90
2022,04,26,08,08,7.90
2022,04,26,08,09,7.90
2022,04,26,08,10,7.90
2022,04,26,08,11,7.90
2022,04,26,08,12,7.90
2022,04,26,08,13,7.90
2022,04,26,08,14,7.90
2022,04,26,08,15,8.00
2022,04,26,08,16,8.00
2022,04,26,08,17,8.00
2022,04,26,08,18,8.10
2022,04,26,08,19,8.10
2022,04,26,08,20,8.10
2022,04,26,08,21,8.10
2022,04,26,08,22,8.20
2022,04,26,08,23,8.20
